CW3590 Weather Reports


Display with metric or nautical units.
time (UTC)temp
F
wind
direction
speed
MPH
gust
MPH
rain 1hr
in
rain 24hr
in
rain mn
in
humidity
%
barometer
mb
20260904135013 76 74 0.0 2.0 0.00 0.00 0.00 93 1014.2
20260904134012 75 116 1.0 2.0 0.00 0.00 0.00 92 1014.2
20260904133013 75 122 0.0 3.0 0.00 0.00 0.00 92 1014.2
20260904132013 75 0 0.0 0.0 0.00 0.00 0.00 91 1014.1
20260904130013 74 0 0.0 0.0 0.00 0.00 0.00 91 1013.9
20260904125013 74 0 0.0 0.0 0.00 0.01 0.00 91 1013.8
20260904124013 74 0 0.0 0.0 0.00 0.01 0.00 91 1013.6
20260904123014 74 0 0.0 0.0 0.00 0.01 0.00 91 1013.6
20260904122012 74 0 0.0 0.0 0.00 0.01 0.00 91 1013.6
20260904121013 74 0 0.0 0.0 0.00 0.01 0.00 91 1013.5
20260904114013 75 0 0.0 0.0 0.00 0.01 0.00 90 1013.2
20260904112013 75 0 0.0 0.0 0.00 0.01 0.00 90 1013.2
20260904111012 75 0 0.0 0.0 0.00 0.01 0.00 90 1013.2
20260904110013 75 0 0.0 0.0 0.00 0.01 0.00 90 1013.2
20260904104013 75 0 0.0 0.0 0.00 0.01 0.00 90 1013.1
20260904103013 75 0 0.0 0.0 0.00 0.01 0.00 90 1013.1
20260904102013 75 0 0.0 0.0 0.00 0.01 0.00 90 1013.0
20260904100013 75 0 0.0 0.0 0.00 0.02 0.00 90 1012.8
20260904095013 76 0 0.0 1.0 0.00 0.02 0.00 89 1012.7
20260904094013 76 0 0.0 1.0 0.00 0.03 0.00 89 1012.6
20260904093012 76 0 0.0 1.0 0.00 0.03 0.00 89 1012.5
20260904092013 76 0 0.0 0.0 0.00 0.04 0.00 89 1012.5
20260904091012 76 0 0.0 0.0 0.00 0.04 0.00 89 1012.6
20260904090013 76 0 0.0 0.0 0.00 0.05 0.00 90 1012.6
20260904084013 76 0 0.0 1.0 0.00 0.09 0.00 90 1012.6
20260904083013 77 0 0.0 1.0 0.00 0.09 0.00 90 1012.5
20260904082012 76 0 0.0 1.0 0.00 0.09 0.00 89 1012.4
20260904081012 76 0 0.0 0.0 0.00 0.10 0.00 88 1012.3
20260904080012 77 0 0.0 0.0 0.00 0.11 0.00 87 1012.3
20260904075012 77 0 0.0 0.0 0.00 0.12 0.00 87 1012.4
20260904074014 77 0 0.0 0.0 0.00 0.13 0.00 87 1012.3
20260904073013 77 0 0.0 0.0 0.00 0.14 0.00 86 1012.4
20260904071012 78 0 0.0 0.0 0.00 0.22 0.00 86 1012.4
20260904065013 78 0 0.0 0.0 0.00 0.30 0.00 87 1012.6
20260904064012 78 0 0.0 1.0 0.00 0.35 0.00 87 1012.5
20260904063013 79 0 0.0 0.0 0.00 0.38 0.00 87 1012.4
20260904062012 79 0 0.0 1.0 0.00 0.44 0.00 87 1012.4
20260904060012 79 0 0.0 1.0 0.00 0.93 0.00 86 1012.4
20260904055013 79 0 0.0 0.0 0.00 1.08 0.00 86 1012.3
20260904052013 80 0 0.0 1.0 0.00 1.11 0.00 85 1012.2
20260904051012 80 0 0.0 1.0 0.00 1.11 0.00 84 1012.3
20260904050014 80 0 0.0 1.0 0.00 1.11 0.00 83 1012.4
20260904045012 80 0 0.0 1.0 0.00 1.11 1.11 83 1012.5
20260904043013 80 0 0.0 1.0 0.00 1.11 1.11 81 1012.7
20260904042013 81 0 0.0 2.0 0.00 1.11 1.11 80 1012.7
20260904041012 81 0 0.0 1.0 0.00 1.11 1.11 80 1012.6
20260904034012 82 0 0.0 1.0 0.00 1.11 1.11 79 1012.6
20260904033012 82 0 0.0 1.0 0.00 1.11 1.11 79 1012.7
20260904032012 82 131 0.0 1.0 0.00 1.11 1.11 78 1012.7
20260904031012 82 131 1.0 2.0 0.00 1.11 1.11 78 1012.5
20260904025012 83 131 1.0 2.0 0.00 1.13 1.11 76 1012.3
20260904024012 83 0 0.0 2.0 0.00 1.15 1.11 75 1012.3
20260904023013 84 0 0.0 0.0 0.00 1.17 1.11 74 1012.2
20260904022012 84 130 0.0 1.0 0.00 1.20 1.11 74 1012.0
20260904021012 84 130 1.0 1.0 0.00 1.24 1.11 73 1011.8
20260904015012 85 0 0.0 0.0 0.00 1.35 1.11 72 1011.6
20260904014012 85 158 1.0 1.0 0.00 1.35 1.11 72 1011.5
20260904013012 85 159 1.0 2.0 0.00 1.35 1.11 72 1011.3
20260904012012 86 0 0.0 2.0 0.00 1.36 1.11 71 1011.2
20260904011012 86 0 0.0 0.0 0.00 1.36 1.11 71 1011.1
20260904010012 86 160 0.0 1.0 0.00 1.36 1.11 70 1011.0
20260904005012 86 160 1.0 2.0 0.00 1.36 1.11 70 1010.9
20260904003014 87 159 0.0 3.0 0.00 1.36 1.11 69 1010.9
20260904002013 87 158 2.0 3.0 0.00 1.36 1.11 68 1010.8
20260904001012 88 154 2.0 4.0 0.00 1.36 1.11 67 1010.8
20260903235012 88 169 1.0 5.0 0.00 1.36 1.11 67 1010.7
20260903234012 88 172 1.0 3.0 0.00 1.36 1.11 66 1010.7
20260903233012 89 193 1.0 2.0 0.00 1.36 1.11 67 1010.7
20260903232013 89 177 1.0 5.0 0.00 1.36 1.11 66 1010.7
20260903231012 89 186 2.0 5.0 0.00 1.36 1.11 64 1010.7
20260903225012 89 175 1.0 3.0 0.00 1.36 1.11 64 1010.8
20260903224012 89 147 2.0 4.0 0.00 1.36 1.11 65 1010.9
20260903223012 89 146 2.0 4.0 0.00 1.36 1.11 65 1010.9
20260903222012 90 172 1.0 7.0 0.00 1.36 1.11 64 1011.0
20260903221012 89 137 1.0 4.0 0.00 1.36 1.11 65 1011.0
20260903220012 88 148 1.0 3.0 0.00 1.36 1.11 67 1011.1
20260903215012 88 150 2.0 4.0 0.00 1.36 1.11 66 1011.2
20260903213012 89 161 2.0 5.0 0.00 1.36 1.11 65 1011.4
20260903212012 90 172 2.0 3.0 0.00 1.36 1.11 64 1011.4
20260903211012 90 145 2.0 5.0 0.00 1.36 1.11 64 1011.5
20260903205012 89 145 1.0 3.0 0.00 1.36 1.11 67 1011.6
20260903203012 88 184 2.0 6.0 0.00 1.36 1.11 66 1011.6
20260903202011 88 156 2.0 4.0 0.00 1.36 1.11 66 1011.8
20260903201012 88 230 1.0 3.0 0.00 1.36 1.11 68 1011.9
20260903200012 87 103 1.0 5.0 0.00 1.36 1.11 70 1012.1
20260903195013 86 125 1.0 3.0 0.00 1.36 1.11 73 1012.3
20260903194013 86 277 2.0 6.0 0.00 1.36 1.11 71 1012.5
20260903192011 86 259 2.0 5.0 0.00 1.36 1.11 73 1012.7
20260903191011 85 195 2.0 5.0 0.00 1.36 1.11 72 1012.8
20260903190016 86 204 2.0 6.0 0.00 1.36 1.11 72 1013.1
20260903185012 86 212 2.0 6.0 0.00 1.36 1.11 72 1013.1
20260903184012 86 229 2.0 7.0 0.00 1.36 1.11 74 1013.2
20260903183011 85 168 2.0 4.0 0.00 1.36 1.11 75 1013.4
20260903182013 85 209 3.0 7.0 0.00 1.36 1.11 75 1013.7
20260903181012 85 193 2.0 6.0 0.00 1.36 1.11 75 1013.7
20260903180011 85 184 2.0 4.0 0.00 1.36 1.11 77 1013.9
20260903175012 83 214 3.0 6.0 0.00 1.36 1.11 79 1014.3
20260903174012 84 209 3.0 8.0 0.00 1.36 1.11 77 1014.3
20260903173012 84 202 3.0 7.0 0.00 1.36 1.11 76 1014.4
20260903172012 84 184 3.0 7.0 0.00 1.36 1.11 76 1014.3
20260903171012 83 224 3.0 7.0 0.00 1.36 1.11 77 1014.5
20260903170011 83 198 3.0 6.0 0.00 1.36 1.11 78 1014.4
20260903164011 82 197 3.0 7.0 0.00 1.36 1.11 80 1014.3
20260903163011 82 217 2.0 7.0 0.00 1.36 1.11 81 1014.3
20260903162012 82 139 2.0 5.0 0.00 1.36 1.11 82 1014.3
20260903161012 82 140 2.0 6.0 0.00 1.36 1.11 83 1014.4
20260903160011 81 182 2.0 7.0 0.00 1.36 1.11 84 1014.4
20260903155011 81 161 2.0 6.0 0.00 1.36 1.11 86 1014.2
20260903154011 80 153 3.0 10.0 0.00 1.36 1.11 90 1014.3
20260903153011 79 195 3.0 6.0 0.00 1.36 1.11 94 1014.2
20260903152011 77 153 2.0 7.0 0.00 1.36 1.11 95 1014.2
20260903151011 77 164 2.0 4.0 0.00 1.36 1.11 95 1014.2
20260903145011 76 166 2.0 6.0 0.00 1.36 1.11 96 1014.2
20260903143013 76 148 1.0 3.0 0.00 1.36 1.11 96 1014.0
20260903142011 75 148 1.0 3.0 0.00 1.36 1.11 96 1014.3
20260903141012 75 144 1.0 4.0 0.00 1.36 1.11 96 1014.3
20260903140011 75 143 1.0 2.0 0.00 1.36 1.11 96 1014.3